User: anonymous   Login
Location: Mentone
(34.5413°N, 85.5351°W)
Time: 22:02:01
(UTC-05:00)
Language:

SL-8 R/B - Orbit

View from above orbital plane
View from above orbital plane
View from above satellite
View from above satellite

Ground track
Ground track

The orbit data is extracted from the following two-line orbital elements,

1 33066U 08031G   16150.18036800 -.00000020  00000-0  29354-4 0  9999
2 33066  48.4434 106.4377 0008346 292.7557 149.6994 14.69433264426289
Epoch (UTC): 29 May 2016 04:19:43
Eccentricity: 0.0008346
inclination: 48.4434°
perigee height: 657 km
apogee height: 669 km
right ascension of ascending node: 106.4377°
argument of perigee: 292.7557°
revolutions per day: 14.69433264
mean anomaly at epoch: 149.6994°
orbit number at epoch: 42628

The dashed part of the orbit path shows where the satellite is in the earth's shadow,  

DLR